Year,Month,Day,Hour,Minute,Value (Times are PST for temperature in C)
2014,07,19,00,00,20.10
2014,07,19,00,01,20.10
2014,07,19,00,02,20.10
2014,07,19,00,03,20.10
2014,07,19,00,04,20.10
2014,07,19,00,05,20.10
2014,07,19,00,06,20.10
2014,07,19,00,07,20.10
2014,07,19,00,08,20.10
2014,07,19,00,09,20.10
2014,07,19,00,10,20.10
2014,07,19,00,11,20.10
2014,07,19,00,12,20.10
2014,07,19,00,13,20.10
2014,07,19,00,14,20.10
2014,07,19,00,15,20.10
2014,07,19,00,16,20.00
2014,07,19,00,17,20.00
2014,07,19,00,18,20.00
2014,07,19,00,19,20.00
2014,07,19,00,20,19.90
2014,07,19,00,21,19.90
2014,07,19,00,22,19.90
2014,07,19,00,23,19.90
2014,07,19,00,24,19.90
2014,07,19,00,25,19.90
2014,07,19,00,26,19.90
2014,07,19,00,27,19.90
2014,07,19,00,28,19.90
2014,07,19,00,29,19.90
2014,07,19,00,30,19.90
2014,07,19,00,31,19.90
2014,07,19,00,32,19.90
2014,07,19,00,33,19.90
2014,07,19,00,34,19.90
2014,07,19,00,35,19.90
2014,07,19,00,36,19.90
2014,07,19,00,37,19.80
2014,07,19,00,38,19.80
2014,07,19,00,39,19.80
2014,07,19,00,40,19.80
2014,07,19,00,41,19.80
2014,07,19,00,42,19.80
2014,07,19,00,43,19.80
2014,07,19,00,44,19.80
2014,07,19,00,45,19.80
2014,07,19,00,46,19.80
2014,07,19,00,47,19.80
2014,07,19,00,48,19.80
2014,07,19,00,49,19.80
2014,07,19,00,50,19.80
2014,07,19,00,51,19.80
2014,07,19,00,52,19.80
2014,07,19,00,53,19.80
2014,07,19,00,54,19.80
2014,07,19,00,55,19.80
2014,07,19,00,56,19.80
2014,07,19,00,57,19.80
2014,07,19,00,58,19.70
2014,07,19,00,59,19.70
2014,07,19,01,00,19.70
2014,07,19,01,01,19.70
2014,07,19,01,02,19.70
2014,07,19,01,03,19.70
2014,07,19,01,04,19.70
2014,07,19,01,05,19.70
2014,07,19,01,06,19.70
2014,07,19,01,07,19.70
2014,07,19,01,08,19.70
2014,07,19,01,09,19.70
2014,07,19,01,10,19.70
2014,07,19,01,11,19.70
2014,07,19,01,12,19.70
2014,07,19,01,13,19.70
2014,07,19,01,14,19.70
2014,07,19,01,15,19.70
2014,07,19,01,16,19.70
2014,07,19,01,17,19.70
2014,07,19,01,18,19.70
2014,07,19,01,19,19.80
2014,07,19,01,20,19.70
2014,07,19,01,21,19.70
2014,07,19,01,22,19.70
2014,07,19,01,23,19.70
2014,07,19,01,24,19.60
2014,07,19,01,25,19.60
2014,07,19,01,26,19.60
2014,07,19,01,27,19.60
2014,07,19,01,28,19.60
2014,07,19,01,29,19.50
2014,07,19,01,30,19.50
2014,07,19,01,31,19.50
2014,07,19,01,32,19.40
2014,07,19,01,33,19.50
2014,07,19,01,34,19.50
2014,07,19,01,35,19.50
2014,07,19,01,36,19.50
2014,07,19,01,37,19.40
2014,07,19,01,38,19.40
2014,07,19,01,39,19.40
2014,07,19,01,40,19.40
2014,07,19,01,41,19.40
2014,07,19,01,42,19.40
2014,07,19,01,43,19.40
2014,07,19,01,44,19.40
2014,07,19,01,45,19.40
2014,07,19,01,46,19.40
2014,07,19,01,47,19.40
2014,07,19,01,48,19.40
2014,07,19,01,49,19.40
2014,07,19,01,50,19.40
2014,07,19,01,51,19.40
2014,07,19,01,52,19.40
2014,07,19,01,53,19.40
2014,07,19,01,54,19.40
2014,07,19,01,55,19.40
2014,07,19,01,56,19.40
2014,07,19,01,57,19.40
2014,07,19,01,58,19.40
2014,07,19,01,59,19.40
2014,07,19,02,00,19.40
2014,07,19,02,01,19.40
2014,07,19,02,02,19.40
2014,07,19,02,03,19.40
2014,07,19,02,04,19.40
2014,07,19,02,05,19.40
2014,07,19,02,06,19.40
2014,07,19,02,07,19.40
2014,07,19,02,08,19.50
2014,07,19,02,09,19.50
2014,07,19,02,10,19.50
2014,07,19,02,11,19.50
2014,07,19,02,12,19.40
2014,07,19,02,13,19.40
2014,07,19,02,14,19.50
2014,07,19,02,15,19.60
2014,07,19,02,16,19.60
2014,07,19,02,17,19.60
2014,07,19,02,18,19.60
2014,07,19,02,19,19.60
2014,07,19,02,20,19.60
2014,07,19,02,21,19.60
2014,07,19,02,22,19.70
2014,07,19,02,23,19.70
2014,07,19,02,24,19.70
2014,07,19,02,25,19.70
2014,07,19,02,26,19.70
2014,07,19,02,27,19.70
2014,07,19,02,28,19.70
2014,07,19,02,29,19.70
2014,07,19,02,30,19.80
2014,07,19,02,31,19.80
2014,07,19,02,32,19.80
2014,07,19,02,33,19.80
2014,07,19,02,34,19.80
2014,07,19,02,35,19.80
2014,07,19,02,36,19.80
2014,07,19,02,37,19.80
2014,07,19,02,38,19.80
2014,07,19,02,39,19.90
2014,07,19,02,40,19.90
2014,07,19,02,41,19.90
2014,07,19,02,42,19.90
2014,07,19,02,43,19.90
2014,07,19,02,44,19.90
2014,07,19,02,45,19.90
2014,07,19,02,46,20.00
2014,07,19,02,47,20.00
2014,07,19,02,48,20.00
2014,07,19,02,49,20.00
2014,07,19,02,50,20.00
2014,07,19,02,51,20.00
2014,07,19,02,52,20.10
2014,07,19,02,53,20.10
2014,07,19,02,54,20.10
2014,07,19,02,55,20.10
2014,07,19,02,56,20.10
2014,07,19,02,57,20.20
2014,07,19,02,58,20.20
2014,07,19,02,59,20.30
2014,07,19,03,00,20.30
2014,07,19,03,01,20.30
2014,07,19,03,02,20.30
2014,07,19,03,06,20.40
2014,07,19,03,07,20.40
2014,07,19,03,08,20.30
2014,07,19,03,09,20.30
2014,07,19,03,10,20.30
2014,07,19,03,11,20.30
2014,07,19,03,12,20.30
2014,07,19,03,13,20.30
2014,07,19,03,14,20.30
2014,07,19,03,15,20.30
2014,07,19,03,16,20.30
2014,07,19,03,17,20.30
2014,07,19,03,18,20.30
2014,07,19,03,19,20.30
2014,07,19,03,20,20.30
2014,07,19,03,21,20.30
2014,07,19,03,22,20.30
2014,07,19,03,23,20.30
2014,07,19,03,24,20.30
2014,07,19,03,25,20.20
2014,07,19,03,26,20.20
2014,07,19,03,27,20.30
2014,07,19,03,28,20.30
2014,07,19,03,29,20.30
2014,07,19,03,30,20.30
2014,07,19,03,31,20.30
2014,07,19,03,32,20.30
2014,07,19,03,33,20.40
2014,07,19,03,34,20.40
2014,07,19,03,35,20.40
2014,07,19,03,36,20.40
2014,07,19,03,37,20.40
2014,07,19,03,38,20.40
2014,07,19,03,39,20.40
2014,07,19,03,40,20.40
2014,07,19,03,41,20.40
2014,07,19,03,42,20.40
2014,07,19,03,43,20.30
2014,07,19,03,44,20.30
2014,07,19,03,45,20.20
2014,07,19,03,46,20.20
2014,07,19,03,47,20.20
2014,07,19,03,48,20.10
2014,07,19,03,49,20.10
2014,07,19,03,50,20.10
2014,07,19,03,51,20.10
2014,07,19,03,52,20.10
2014,07,19,03,53,20.10
2014,07,19,03,54,20.00
2014,07,19,03,55,20.00
2014,07,19,03,56,20.00
2014,07,19,03,57,20.00
2014,07,19,03,58,20.00
2014,07,19,03,59,20.00
2014,07,19,04,00,20.00
2014,07,19,04,01,20.00
2014,07,19,04,02,20.00
2014,07,19,04,03,20.00
2014,07,19,04,04,20.00
2014,07,19,04,05,19.90
2014,07,19,04,06,19.90
2014,07,19,04,07,19.90
2014,07,19,04,08,19.90
2014,07,19,04,09,19.90
2014,07,19,04,10,19.80
2014,07,19,04,11,19.80
2014,07,19,04,12,19.80
2014,07,19,04,13,19.80
2014,07,19,04,14,19.80
2014,07,19,04,15,19.80
2014,07,19,04,16,19.70
2014,07,19,04,17,19.70
2014,07,19,04,18,19.70
2014,07,19,04,19,19.70
2014,07,19,04,20,19.60
2014,07,19,04,21,19.60
2014,07,19,04,22,19.60
2014,07,19,04,23,19.60
2014,07,19,04,24,19.60
2014,07,19,04,25,19.60
2014,07,19,04,26,19.60
2014,07,19,04,27,19.60
2014,07,19,04,28,19.60
2014,07,19,04,29,19.60
2014,07,19,04,30,19.60
2014,07,19,04,31,19.60
2014,07,19,04,32,19.50
2014,07,19,04,33,19.50
2014,07,19,04,34,19.40
2014,07,19,04,35,19.40
2014,07,19,04,36,19.40
2014,07,19,04,37,19.40
2014,07,19,04,38,19.40
2014,07,19,04,39,19.40
2014,07,19,04,40,19.30
2014,07,19,04,41,19.30
2014,07,19,04,42,19.30
2014,07,19,04,43,19.30
2014,07,19,04,44,19.30
2014,07,19,04,45,19.30
2014,07,19,04,46,19.30
2014,07,19,04,47,19.30
2014,07,19,04,48,19.20
2014,07,19,04,49,19.20
2014,07,19,04,50,19.10
2014,07,19,04,51,19.10
2014,07,19,04,52,19.10
2014,07,19,04,53,19.10
2014,07,19,04,54,19.10
2014,07,19,04,55,19.10
2014,07,19,04,56,19.00
2014,07,19,04,57,19.00
2014,07,19,04,58,19.00
2014,07,19,04,59,18.90
2014,07,19,05,00,18.90
2014,07,19,05,01,18.90
2014,07,19,05,02,18.90
2014,07,19,05,03,18.80
2014,07,19,05,04,18.80
2014,07,19,05,05,18.80
2014,07,19,05,06,18.80
2014,07,19,05,07,18.80
2014,07,19,05,08,18.80
2014,07,19,05,09,18.80
2014,07,19,05,10,18.70
2014,07,19,05,11,18.70
2014,07,19,05,12,18.70
2014,07,19,05,13,18.70
2014,07,19,05,14,18.70
2014,07,19,05,15,18.70
2014,07,19,05,16,18.70
2014,07,19,05,17,18.70
2014,07,19,05,18,18.70
2014,07,19,05,19,18.70
2014,07,19,05,20,18.70
2014,07,19,05,21,18.70
2014,07,19,05,22,18.60
2014,07,19,05,23,18.60
2014,07,19,05,24,18.60
2014,07,19,05,25,18.70
2014,07,19,05,26,18.70
2014,07,19,05,27,18.70
2014,07,19,05,28,18.70
2014,07,19,05,29,18.70
2014,07,19,05,30,18.70
2014,07,19,05,31,18.70
2014,07,19,05,32,18.70
2014,07,19,05,33,18.80
2014,07,19,05,34,18.80
2014,07,19,05,35,18.80
2014,07,19,05,36,18.80
2014,07,19,05,37,18.80
2014,07,19,05,38,18.80
2014,07,19,05,39,18.80
2014,07,19,05,40,18.80
2014,07,19,05,41,18.80
2014,07,19,05,42,18.80
2014,07,19,05,43,18.90
2014,07,19,05,44,18.90
2014,07,19,05,45,18.90
2014,07,19,05,46,18.90
2014,07,19,05,47,18.90
2014,07,19,05,48,18.90
2014,07,19,05,49,18.90
2014,07,19,05,50,18.90
2014,07,19,05,51,18.90
2014,07,19,05,52,18.90
2014,07,19,05,53,18.90
2014,07,19,05,54,18.90
2014,07,19,05,55,18.80
2014,07,19,05,56,18.80
2014,07,19,05,57,18.80
2014,07,19,05,58,18.80
2014,07,19,05,59,18.80
2014,07,19,06,00,18.80
2014,07,19,06,01,18.80
2014,07,19,06,02,18.80
2014,07,19,06,03,18.80
2014,07,19,06,04,18.80
2014,07,19,06,05,18.80
2014,07,19,06,06,18.80
2014,07,19,06,07,18.80
2014,07,19,06,08,18.80
2014,07,19,06,09,18.80
2014,07,19,06,10,18.80
2014,07,19,06,11,18.80
2014,07,19,06,12,18.80
2014,07,19,06,13,18.80
2014,07,19,06,14,18.80
2014,07,19,06,15,18.80
2014,07,19,06,16,18.80
2014,07,19,06,17,18.80
2014,07,19,06,18,18.80
2014,07,19,06,19,18.80
2014,07,19,06,20,18.80
2014,07,19,06,21,18.80
2014,07,19,06,22,18.80
2014,07,19,06,23,18.80
2014,07,19,06,24,18.80
2014,07,19,06,25,18.80
2014,07,19,06,26,18.80
2014,07,19,06,27,18.80
2014,07,19,06,28,18.80
2014,07,19,06,29,18.70
2014,07,19,06,30,18.70
2014,07,19,06,31,18.70
2014,07,19,06,32,18.70
2014,07,19,06,33,18.70
2014,07,19,06,34,18.70
2014,07,19,06,35,18.70
2014,07,19,06,36,18.70
2014,07,19,06,37,18.70
2014,07,19,06,38,18.70
2014,07,19,06,39,18.70
2014,07,19,06,40,18.70
2014,07,19,06,41,18.70
2014,07,19,06,42,18.70
2014,07,19,06,43,18.70
2014,07,19,06,44,18.70
2014,07,19,06,45,18.70
2014,07,19,06,46,18.70
2014,07,19,06,47,18.70
2014,07,19,06,48,18.70
2014,07,19,06,49,18.70
2014,07,19,06,50,18.70
2014,07,19,06,51,18.70
2014,07,19,06,52,18.70
2014,07,19,06,53,18.60
2014,07,19,06,54,18.60
2014,07,19,06,55,18.60
2014,07,19,06,56,18.60
2014,07,19,06,57,18.60
2014,07,19,06,58,18.60
2014,07,19,06,59,18.60
2014,07,19,07,00,18.60
2014,07,19,07,01,18.60
2014,07,19,07,02,18.50
2014,07,19,07,03,18.50
2014,07,19,07,04,18.50
2014,07,19,07,05,18.50
2014,07,19,07,06,18.50
2014,07,19,07,07,18.50
2014,07,19,07,08,18.50
2014,07,19,07,09,18.50
2014,07,19,07,10,18.50
2014,07,19,07,11,18.50
2014,07,19,07,12,18.50
2014,07,19,07,13,18.50
2014,07,19,07,14,18.50
2014,07,19,07,15,18.60
2014,07,19,07,16,18.50
2014,07,19,07,17,18.60
2014,07,19,07,18,18.60
2014,07,19,07,19,18.60
2014,07,19,07,20,18.60
2014,07,19,07,21,18.60
2014,07,19,07,22,18.60
2014,07,19,07,23,18.60
2014,07,19,07,24,18.60
2014,07,19,07,25,18.60
2014,07,19,07,26,18.60
2014,07,19,07,27,18.60
2014,07,19,07,28,18.60
2014,07,19,07,29,18.60
2014,07,19,07,30,18.60
2014,07,19,07,31,18.60
2014,07,19,07,32,18.60
2014,07,19,07,33,18.60
2014,07,19,07,34,18.60
2014,07,19,07,35,18.60
2014,07,19,07,36,18.60
2014,07,19,07,37,18.70
2014,07,19,07,38,18.70
2014,07,19,07,39,18.70
2014,07,19,07,40,18.70
2014,07,19,07,41,18.70
2014,07,19,07,42,18.70
2014,07,19,07,43,18.70
2014,07,19,07,44,18.70
2014,07,19,07,45,18.70
2014,07,19,07,46,18.70
2014,07,19,07,47,18.70
2014,07,19,07,48,18.70
2014,07,19,07,49,18.80
2014,07,19,07,50,18.80
2014,07,19,07,51,18.80
2014,07,19,07,52,18.80
2014,07,19,07,53,18.80
2014,07,19,07,54,18.80
2014,07,19,07,55,18.80
2014,07,19,07,56,18.80
2014,07,19,07,57,18.80
2014,07,19,07,58,18.80
2014,07,19,07,59,18.80
2014,07,19,08,00,18.80
2014,07,19,08,01,18.80
2014,07,19,08,02,18.80
2014,07,19,08,03,18.80
2014,07,19,08,04,18.80
2014,07,19,08,05,18.80
2014,07,19,08,06,18.80
2014,07,19,08,07,18.80
2014,07,19,08,08,18.80
2014,07,19,08,09,18.80
2014,07,19,08,10,18.80
2014,07,19,08,11,18.80
2014,07,19,08,12,18.80
2014,07,19,08,13,18.80
2014,07,19,08,14,18.80
2014,07,19,08,15,18.80
2014,07,19,08,16,18.80
2014,07,19,08,17,18.80
2014,07,19,08,18,18.80
2014,07,19,08,19,18.80
2014,07,19,08,20,18.80
2014,07,19,08,21,18.80
2014,07,19,08,22,18.80
2014,07,19,08,23,18.80
2014,07,19,08,24,18.80
2014,07,19,08,25,18.70
2014,07,19,08,26,18.60
2014,07,19,08,27,18.50
2014,07,19,08,28,18.50
2014,07,19,08,29,18.30
2014,07,19,08,30,18.20
2014,07,19,08,31,18.10
2014,07,19,08,32,18.00
2014,07,19,08,33,17.90
2014,07,19,08,34,17.80
2014,07,19,08,35,17.80
2014,07,19,08,36,17.70
2014,07,19,08,37,17.70
2014,07,19,08,38,17.60
2014,07,19,08,39,17.60
2014,07,19,08,40,17.60
2014,07,19,08,41,17.60
2014,07,19,08,42,17.60
2014,07,19,08,43,17.60
2014,07,19,08,44,17.60
2014,07,19,08,45,17.60
2014,07,19,08,46,17.60
2014,07,19,08,47,17.60
2014,07,19,08,48,17.60
2014,07,19,08,49,17.60
2014,07,19,08,50,17.60
2014,07,19,08,51,17.60
2014,07,19,08,52,17.60
2014,07,19,08,53,17.60
2014,07,19,08,54,17.60
2014,07,19,08,55,17.60
2014,07,19,08,56,17.70
2014,07,19,08,57,17.70
2014,07,19,08,58,17.70
2014,07,19,08,59,17.70
2014,07,19,09,00,17.70
2014,07,19,09,01,17.80
2014,07,19,09,02,17.80
2014,07,19,09,03,17.80
2014,07,19,09,04,17.80
2014,07,19,09,05,17.80
2014,07,19,09,06,17.70
2014,07,19,09,07,17.70
2014,07,19,09,08,17.70
2014,07,19,09,09,17.70
2014,07,19,09,10,17.70
2014,07,19,09,11,17.70
2014,07,19,09,12,17.70
2014,07,19,09,13,17.70
2014,07,19,09,14,17.70
2014,07,19,09,15,17.70
2014,07,19,09,16,17.70
2014,07,19,09,17,17.70
2014,07,19,09,18,17.70
2014,07,19,09,19,17.70
2014,07,19,09,20,17.70
2014,07,19,09,21,17.60
2014,07,19,09,22,17.60
2014,07,19,09,23,17.50
2014,07,19,09,24,17.40
2014,07,19,09,25,17.40
2014,07,19,09,26,17.30
2014,07,19,09,27,17.20
2014,07,19,09,28,17.10
2014,07,19,09,29,17.00
2014,07,19,09,30,17.00
2014,07,19,09,31,16.90
2014,07,19,09,32,16.90
2014,07,19,09,33,16.80
2014,07,19,09,34,16.80
2014,07,19,09,35,16.80
2014,07,19,09,36,16.80
2014,07,19,09,37,16.70
2014,07,19,09,38,16.70
2014,07,19,09,39,16.60
2014,07,19,09,40,16.60
2014,07,19,09,41,16.60
2014,07,19,09,42,16.60
2014,07,19,09,43,16.60
2014,07,19,09,44,16.60
2014,07,19,09,45,16.70
2014,07,19,09,46,16.70
2014,07,19,09,47,16.70
2014,07,19,09,48,16.70
2014,07,19,09,49,16.70
2014,07,19,09,50,16.80
2014,07,19,09,51,16.80
2014,07,19,09,52,16.80
2014,07,19,09,53,16.80
2014,07,19,09,54,16.90
2014,07,19,09,55,16.90
2014,07,19,09,56,16.90
2014,07,19,09,57,17.00
2014,07,19,09,58,17.00
2014,07,19,09,59,17.10
2014,07,19,10,00,17.10
2014,07,19,10,01,17.20
2014,07,19,10,02,17.20
2014,07,19,10,03,17.30
2014,07,19,10,04,17.30
2014,07,19,10,05,17.40
2014,07,19,10,06,17.40
2014,07,19,10,07,17.40
2014,07,19,10,08,17.50
2014,07,19,10,09,17.50
2014,07,19,10,10,17.60
2014,07,19,10,11,17.60
2014,07,19,10,12,17.70
2014,07,19,10,13,17.70
2014,07,19,10,14,17.80
2014,07,19,10,15,17.80
2014,07,19,10,16,17.90
2014,07,19,10,17,17.90
2014,07,19,10,18,18.00
2014,07,19,10,19,18.10
2014,07,19,10,20,18.10
2014,07,19,10,21,18.20
2014,07,19,10,22,18.20
2014,07,19,10,23,18.20
2014,07,19,10,24,18.30
2014,07,19,10,25,18.30
2014,07,19,10,26,18.30
2014,07,19,10,27,18.40
2014,07,19,10,28,18.40
2014,07,19,10,29,18.50
2014,07,19,10,30,18.50
2014,07,19,10,31,18.60
2014,07,19,10,32,18.60
2014,07,19,10,33,18.60
2014,07,19,10,34,18.60
2014,07,19,10,35,18.60
2014,07,19,10,36,18.60
2014,07,19,10,37,18.60
2014,07,19,10,38,18.60
2014,07,19,10,39,18.60
2014,07,19,10,40,18.60
2014,07,19,10,41,18.50
2014,07,19,10,42,18.50
2014,07,19,10,43,18.50
2014,07,19,10,44,18.50
2014,07,19,10,45,18.50
2014,07,19,10,46,18.50
2014,07,19,10,47,18.50
2014,07,19,10,48,18.50
2014,07,19,10,49,18.60
2014,07,19,10,50,18.60
2014,07,19,10,51,18.70
2014,07,19,10,52,18.70
2014,07,19,10,53,18.70
2014,07,19,10,54,18.80
2014,07,19,10,55,18.80
2014,07,19,10,56,18.90
2014,07,19,10,57,18.90
2014,07,19,10,58,19.00
2014,07,19,10,59,19.00
2014,07,19,11,00,19.10
2014,07,19,11,01,19.20
2014,07,19,11,02,19.20
2014,07,19,11,03,19.30
2014,07,19,11,04,19.30
2014,07,19,11,05,19.30
2014,07,19,11,06,19.40
2014,07,19,11,07,19.40
2014,07,19,11,08,19.50
2014,07,19,11,09,19.60
2014,07,19,11,10,19.70
2014,07,19,11,11,19.80
2014,07,19,11,12,19.80
2014,07,19,11,13,20.00
2014,07,19,11,14,20.10
2014,07,19,11,15,20.20
2014,07,19,11,16,20.30
2014,07,19,11,17,20.40
2014,07,19,11,18,20.50
2014,07,19,11,19,20.60
2014,07,19,11,20,20.60
2014,07,19,11,21,20.60
2014,07,19,11,22,20.70
2014,07,19,11,23,20.70
2014,07,19,11,24,20.70
2014,07,19,11,25,20.70
2014,07,19,11,26,20.80
2014,07,19,11,27,20.80
2014,07,19,11,28,20.90
2014,07,19,11,29,20.90
2014,07,19,11,30,20.90
2014,07,19,11,31,20.90
2014,07,19,11,32,20.90
2014,07,19,11,33,20.90
2014,07,19,11,34,20.90
2014,07,19,11,35,21.00
2014,07,19,11,36,21.00
2014,07,19,11,37,21.00
2014,07,19,11,38,21.10
2014,07,19,11,39,21.10
2014,07,19,11,40,21.00
2014,07,19,11,41,21.00
2014,07,19,11,42,20.90
2014,07,19,11,43,20.80
2014,07,19,11,44,20.70
2014,07,19,11,45,20.70
2014,07,19,11,46,20.70
2014,07,19,11,47,20.60
2014,07,19,11,48,20.60
2014,07,19,11,49,20.50
2014,07,19,11,50,20.50
2014,07,19,11,51,20.50
2014,07,19,11,52,20.50
2014,07,19,11,53,20.40
2014,07,19,11,54,20.50
2014,07,19,11,55,20.50
2014,07,19,11,56,20.50
2014,07,19,11,57,20.50
2014,07,19,11,58,20.50
2014,07,19,11,59,20.60
2014,07,19,12,00,20.60
2014,07,19,12,01,20.60
2014,07,19,12,02,20.70
2014,07,19,12,03,20.70
2014,07,19,12,04,20.70
2014,07,19,12,05,20.70
2014,07,19,12,06,20.70
2014,07,19,12,07,20.70
2014,07,19,12,08,20.70
2014,07,19,12,09,20.70
2014,07,19,12,10,20.70
2014,07,19,12,11,20.70
2014,07,19,12,12,20.70
2014,07,19,12,13,20.70
2014,07,19,12,14,20.70
2014,07,19,12,15,20.70
2014,07,19,12,16,20.70
2014,07,19,12,17,20.70
2014,07,19,12,18,20.70
2014,07,19,12,19,20.80
2014,07,19,12,20,20.80
2014,07,19,12,21,20.80
2014,07,19,12,22,20.80
2014,07,19,12,23,20.90
2014,07,19,12,24,20.90
2014,07,19,12,25,21.00
2014,07,19,12,26,21.00
2014,07,19,12,27,21.10
2014,07,19,12,28,21.10
2014,07,19,12,29,21.20
2014,07,19,12,30,21.30
2014,07,19,12,31,21.40
2014,07,19,12,32,21.50
2014,07,19,12,33,21.60
2014,07,19,12,34,21.60
2014,07,19,12,35,21.70
2014,07,19,12,36,21.80
2014,07,19,12,37,21.90
2014,07,19,12,38,22.10
2014,07,19,12,39,22.20
2014,07,19,12,40,22.20
2014,07,19,12,41,22.20
2014,07,19,12,42,22.20
2014,07,19,12,43,22.20
2014,07,19,12,44,22.20
2014,07,19,12,45,22.20
2014,07,19,12,46,22.20
2014,07,19,12,47,22.10
2014,07,19,12,48,22.10
2014,07,19,12,49,22.10
2014,07,19,12,50,22.10
2014,07,19,12,51,22.10
2014,07,19,12,52,22.20
2014,07,19,12,53,22.20
2014,07,19,12,54,22.20
2014,07,19,12,55,22.20
2014,07,19,12,56,22.20
2014,07,19,12,57,22.20
2014,07,19,12,58,22.30
2014,07,19,12,59,22.30
2014,07,19,13,00,22.30
2014,07,19,13,01,22.40
2014,07,19,13,02,22.40
2014,07,19,13,03,22.40
2014,07,19,13,04,22.40
2014,07,19,13,05,22.40
2014,07,19,13,06,22.50
2014,07,19,13,07,22.60
2014,07,19,13,08,22.70
2014,07,19,13,09,22.80
2014,07,19,13,10,22.90
2014,07,19,13,11,23.00
2014,07,19,13,12,23.10
2014,07,19,13,13,23.10
2014,07,19,13,14,23.10
2014,07,19,13,15,23.20
2014,07,19,13,16,23.30
2014,07,19,13,17,23.30
2014,07,19,13,18,23.30
2014,07,19,13,19,23.30
2014,07,19,13,20,23.30
2014,07,19,13,21,23.30
2014,07,19,13,22,23.30
2014,07,19,13,23,23.30
2014,07,19,13,24,23.20
2014,07,19,13,25,23.10
2014,07,19,13,26,23.00
2014,07,19,13,27,22.90
2014,07,19,13,28,22.80
2014,07,19,13,29,22.80
2014,07,19,13,30,22.80
2014,07,19,13,31,22.80
2014,07,19,13,32,22.80
2014,07,19,13,33,22.90
2014,07,19,13,34,23.00
2014,07,19,13,35,23.10
2014,07,19,13,36,23.20
2014,07,19,13,37,23.20
2014,07,19,13,38,23.20
2014,07,19,13,39,23.10
2014,07,19,13,40,23.10
2014,07,19,13,41,23.10
2014,07,19,13,42,23.10
2014,07,19,13,43,23.10
2014,07,19,13,44,23.10
2014,07,19,13,45,23.10
2014,07,19,13,46,23.10
2014,07,19,13,47,23.10
2014,07,19,13,48,23.10
2014,07,19,13,49,23.10
2014,07,19,13,50,23.20
2014,07,19,13,51,23.20
2014,07,19,13,52,23.20
2014,07,19,13,53,23.20
2014,07,19,13,54,23.20
2014,07,19,13,55,23.20
2014,07,19,13,56,23.20
2014,07,19,13,57,23.20
2014,07,19,13,58,23.20
2014,07,19,13,59,23.20
2014,07,19,14,00,23.20
2014,07,19,14,01,23.30
2014,07,19,14,02,23.20
2014,07,19,14,03,23.30
2014,07,19,14,04,23.30
2014,07,19,14,05,23.20
2014,07,19,14,06,23.20
2014,07,19,14,07,23.10
2014,07,19,14,08,23.00
2014,07,19,14,09,23.00
2014,07,19,14,10,23.00
2014,07,19,14,11,22.90
2014,07,19,14,12,23.00
2014,07,19,14,13,23.00
2014,07,19,14,14,23.10
2014,07,19,14,15,23.10
2014,07,19,14,16,23.10
2014,07,19,14,17,23.10
2014,07,19,14,18,23.20
2014,07,19,14,19,23.30
2014,07,19,14,20,23.20
2014,07,19,14,21,23.20
2014,07,19,14,22,23.20
2014,07,19,14,23,23.20
2014,07,19,14,24,23.20
2014,07,19,14,25,23.20
2014,07,19,14,26,23.20
2014,07,19,14,27,23.20
2014,07,19,14,28,23.20
2014,07,19,14,29,23.30
2014,07,19,14,30,23.30
2014,07,19,14,31,23.20
2014,07,19,14,32,23.20
2014,07,19,14,33,23.10
2014,07,19,14,34,23.10
2014,07,19,14,35,23.10
2014,07,19,14,36,23.10
2014,07,19,14,37,23.10
2014,07,19,14,38,23.20
2014,07,19,14,39,23.20
2014,07,19,14,40,23.30
2014,07,19,14,41,23.30
2014,07,19,14,42,23.30
2014,07,19,14,43,23.30
2014,07,19,14,44,23.40
2014,07,19,14,45,23.40
2014,07,19,14,46,23.50
2014,07,19,14,47,23.50
2014,07,19,14,48,23.50
2014,07,19,14,49,23.60
2014,07,19,14,50,23.50
2014,07,19,14,51,23.50
2014,07,19,14,52,23.50
2014,07,19,14,53,23.40
2014,07,19,14,54,23.40
2014,07,19,14,55,23.30
2014,07,19,14,56,23.30
2014,07,19,14,57,23.20
2014,07,19,14,58,23.20
2014,07,19,14,59,23.20
2014,07,19,15,00,23.20
2014,07,19,15,01,23.20
2014,07,19,15,02,23.20
2014,07,19,15,03,23.20
2014,07,19,15,04,23.30
2014,07,19,15,05,23.30
2014,07,19,15,06,23.30
2014,07,19,15,07,23.20
2014,07,19,15,08,23.20
2014,07,19,15,09,23.20
2014,07,19,15,10,23.20
2014,07,19,15,11,23.20
2014,07,19,15,12,23.20
2014,07,19,15,13,23.20
2014,07,19,15,14,23.20
2014,07,19,15,15,23.20
2014,07,19,15,16,23.20
2014,07,19,15,17,23.20
2014,07,19,15,18,23.20
2014,07,19,15,19,23.30
2014,07,19,15,20,23.30
2014,07,19,15,21,23.30
2014,07,19,15,22,23.40
2014,07,19,15,23,23.40
2014,07,19,15,24,23.40
2014,07,19,15,25,23.40
2014,07,19,15,26,23.40
2014,07,19,15,27,23.40
2014,07,19,15,28,23.50
2014,07,19,15,29,23.50
2014,07,19,15,30,23.40
2014,07,19,15,31,23.40
2014,07,19,15,32,23.40
2014,07,19,15,33,23.40
2014,07,19,15,34,23.40
2014,07,19,15,35,23.40
2014,07,19,15,36,23.40
2014,07,19,15,37,23.40
2014,07,19,15,38,23.40
2014,07,19,15,39,23.40
2014,07,19,15,40,23.40
2014,07,19,15,41,23.40
2014,07,19,15,42,23.40
2014,07,19,15,43,23.40
2014,07,19,15,44,23.40
2014,07,19,15,45,23.40
2014,07,19,15,46,23.40
2014,07,19,15,47,23.40
2014,07,19,15,48,23.30
2014,07,19,15,49,23.30
2014,07,19,15,50,23.30
2014,07,19,15,51,23.30
2014,07,19,15,52,23.30
2014,07,19,15,53,23.30
2014,07,19,15,54,23.30
2014,07,19,15,55,23.20
2014,07,19,15,56,23.20
2014,07,19,15,57,23.20
2014,07,19,15,58,23.20
2014,07,19,15,59,23.20
2014,07,19,16,00,23.10
2014,07,19,16,01,23.20
2014,07,19,16,02,23.10
2014,07,19,16,03,23.10
2014,07,19,16,04,23.20
2014,07,19,16,05,23.20
2014,07,19,16,06,23.20
2014,07,19,16,07,23.10
2014,07,19,16,08,23.10
2014,07,19,16,09,23.10
2014,07,19,16,10,23.10
2014,07,19,16,11,23.10
2014,07,19,16,12,23.00
2014,07,19,16,13,23.00
2014,07,19,16,14,23.00
2014,07,19,16,15,23.00
2014,07,19,16,16,23.00
2014,07,19,16,17,23.00
2014,07,19,16,18,23.00
2014,07,19,16,19,23.10
2014,07,19,16,20,23.00
2014,07,19,16,21,23.00
2014,07,19,16,22,22.90
2014,07,19,16,23,22.90
2014,07,19,16,24,22.90
2014,07,19,16,25,22.90
2014,07,19,16,26,22.90
2014,07,19,16,27,22.90
2014,07,19,16,28,22.90
2014,07,19,16,29,22.90
2014,07,19,16,30,22.90
2014,07,19,16,31,22.90
2014,07,19,16,32,22.80
2014,07,19,16,33,22.80
2014,07,19,16,34,22.70
2014,07,19,16,35,22.70
2014,07,19,16,36,22.60
2014,07,19,16,37,22.60
2014,07,19,16,38,22.70
2014,07,19,16,39,22.70
2014,07,19,16,40,22.70
2014,07,19,16,41,22.70
2014,07,19,16,42,22.70
2014,07,19,16,43,22.70
2014,07,19,16,44,22.70
2014,07,19,16,45,22.70
2014,07,19,16,46,22.60
2014,07,19,16,47,22.60
2014,07,19,16,48,22.60
2014,07,19,16,49,22.60
2014,07,19,16,50,22.60
2014,07,19,16,51,22.70
2014,07,19,16,52,22.80
2014,07,19,16,53,22.80
2014,07,19,16,54,22.70
2014,07,19,16,55,22.70
2014,07,19,16,56,22.70
2014,07,19,16,57,22.70
2014,07,19,16,58,22.70
2014,07,19,16,59,22.70
2014,07,19,17,00,22.70
2014,07,19,17,01,22.80
2014,07,19,17,02,22.80
2014,07,19,17,03,22.80
2014,07,19,17,04,22.80
2014,07,19,17,05,22.80
2014,07,19,17,06,22.80
2014,07,19,17,07,22.80
2014,07,19,17,08,22.80
2014,07,19,17,09,22.80
2014,07,19,17,10,22.80
2014,07,19,17,11,22.70
2014,07,19,17,12,22.70
2014,07,19,17,13,22.70
2014,07,19,17,14,22.70
2014,07,19,17,15,22.70
2014,07,19,17,16,22.70
2014,07,19,17,17,22.70
2014,07,19,17,18,22.70
2014,07,19,17,19,22.70
2014,07,19,17,20,22.70
2014,07,19,17,21,22.80
2014,07,19,17,22,22.80